This is the latest recevied weather packets stored in our database for station/object K4AVM-13. If no packets are shown the sender has not sent any weather packets the latest 10 day(s).
| Time | Temp. | Humidity | Pressure | Rain* | Wind** | Luminosity | Snow |
|---|---|---|---|---|---|---|---|
| 1777773276 | 10.56° C | 73% | 1014.7 hPa | 0 mm | - | 0 W/m² | - |
| 1777772972 | 10.56° C | 73% | 1014.6 hPa | 0 mm | - | 0 W/m² | - |
| 1777772669 | 10.56° C | 72% | 1014.6 hPa | 0 mm | - | 0 W/m² | - |
| 1777772368 | 10.56° C | 72% | 1014.2 hPa | 0 mm | - | 0 W/m² | - |
| 1777772064 | 10.56° C | 72% | 1014.5 hPa | 0 mm | - | 0 W/m² | - |
| 1777771762 | 10.56° C | 71% | 1014.4 hPa | 0 mm | - | 0 W/m² | - |
| 1777771460 | 10.56° C | 70% | 1014.4 hPa | 0 mm | - | 0 W/m² | - |
| 1777771155 | 10.56° C | 70% | 1014.4 hPa | 0 mm | - | 0 W/m² | - |
| 1777770852 | 10.56° C | 70% | 1014.4 hPa | 0 mm | - | 0 W/m² | - |
| 1777770549 | 10.56° C | 70% | 1014.3 hPa | 0 mm | - | 0 W/m² | - |
| 1777770246 | 10.56° C | 70% | 1014.4 hPa | 0 mm | - | 0 W/m² | - |
| 1777769943 | 10.56° C | 69% | 1014.5 hPa | 0 mm | - | 0 W/m² | - |
| 1777769641 | 10.56° C | 69% | 1014.4 hPa | 0 mm | - | 0 W/m² | - |
| 1777769336 | 10.56° C | 70% | 1014.1 hPa | 0 mm | - | 0 W/m² | - |
| 1777769034 | 10.56° C | 67% | 1014 hPa | 0 mm | - | 0 W/m² | - |
| 1777768732 | 10.56° C | 69% | 1014 hPa | 0 mm | - | 0 W/m² | - |
| 1777768428 | 10.56° C | 68% | 1014 hPa | 0 mm | - | 0 W/m² | - |
| 1777768125 | 10.56° C | 66% | 1013.9 hPa | 0 mm | - | 0 W/m² | - |
| 1777767823 | 11.11° C | 65% | 1013.8 hPa | 0 mm | - | 0 W/m² | - |
| 1777767519 | 11.11° C | 64% | 1014 hPa | 0 mm | - | 0 W/m² | - |
| 1777767215 | 11.67° C | 64% | 1013.9 hPa | 0 mm | - | 0 W/m² | - |
| 1777766913 | 11.67° C | 61% | 1013.7 hPa | 0 mm | - | 1 W/m² | - |
| 1777766610 | 12.22° C | 60% | 1013.6 hPa | 0 mm | - | 2 W/m² | - |
| 1777766307 | 12.22° C | 59% | 1013.4 hPa | 0 mm | - | 3 W/m² | - |
| 1777766004 | 12.78° C | 59% | 1013.3 hPa | 0 mm | - | 5 W/m² | - |
* Rain latest hour (hover to see other rain measurements)
** Current wind speed in m/s (hover to see current wind gust speed)